Dubuque, IA

12:57 AM CDT on October 23, 2019 (GMT -0500)
Dubuque Regional

Weather History for KDBQ - August, 2019

Change the Weather History Date:

Friday, August 2, 2019

  Actual Average Record
Temperature  
Mean Temperature 70 °F 71 °F  
Max Temperature 82 °F 81 °F 99 °F (1890)
Min Temperature 58 °F 62 °F 50 °F (1927)
Degree Days  
Heating Degree Days 0 0  
Month to date heating degree days 0 0  
Since 1 June heating degree days 29 48  
Since 1 July heating degree days 0 8  
Cooling Degree Days 5 7  
Month to date cooling degree days 10 14  
Year to date cooling degree days 463 414  
Since 1 June cooling degree days 437 377  
Growing Degree Days 20 (Base 50)    
Moisture  
Dew Point 57 °F    
Average Humidity 68    
Maximum Humidity 97    
Minimum Humidity 39    
Precipitation  
Precipitation 0.00 in 0.14 in 1.75 in (1885)
Month to date precipitation 0.00 0.28  
Year to date precipitation 26.11 21.86  
Snow  
Snow 0.00 in 0.00 in - ()
Month to date snowfall 0.0 0.0  
Since 1 June snowfall 0.0 0.0  
Since 1 July snowfall 0.0 0.0  
Snow Depth 0.00 in    
Sea Level Pressure  
Sea Level Pressure 30.15 in    
Wind  
Wind Speed 3 mph (ENE)    
Max Wind Speed 9 mph    
Max Gust Speed 18 mph    
Visibility 10 miles    
Events      
T = Trace of Precipitation, MM = Missing Value Source: NWS Daily Summary

Daily Weather History Graph

Daily Weather History Graph

Search for Another Location

Airport or City:

Astronomy

Aug. 02, 2019 Rise Set
Actual Time 5:56 AM CDT 8:21 PM CDT
Civil Twilight 5:24 AM CDT 8:53 PM CDT
Nautical Twilight 4:44 AM CDT 9:32 PM CDT
Astronomical Twilight 4:00 AM CDT 10:16 PM CDT
Moon 7:36 AM CDT (8/2) 9:48 PM CDT (8/2)
Length of Visible Light 15h 28m
Length of Day
14h 25m
Waxing Crescent, 4% of the Moon is Illuminated
Aug 2
Waxing Crescent
Aug 7
First Quarter
Aug 15
Full
Aug 23
Last Quarter
Aug 30
New

Hourly Weather History & Observations

Time (CDT) Temp. Heat Index Dew Point Humidity Pressure Visibility Wind Dir Wind Speed Gust Speed Precip Events Conditions
12:53 AM 63.0 °F - 57.9 °F 84% 30.19 in 10.0 mi Calm Calm - N/A   Clear
1:53 AM 62.1 °F - 57.0 °F 84% 30.19 in 10.0 mi Calm Calm - N/A   Clear
2:53 AM 62.1 °F - 55.9 °F 80% 30.18 in 10.0 mi Calm Calm - N/A   Clear
3:53 AM 61.0 °F - 55.0 °F 81% 30.18 in 10.0 mi Calm Calm - N/A   Clear
4:53 AM 57.9 °F - 54.0 °F 87% 30.17 in 10.0 mi Calm Calm - N/A   Clear
5:53 AM 59.0 °F - 57.9 °F 96% 30.15 in 10.0 mi Calm Calm - N/A   Clear
6:53 AM 61.0 °F - 59.0 °F 93% 30.16 in 9.0 mi Calm Calm - N/A   Clear
7:53 AM 66.9 °F - 57.0 °F 70% 30.18 in 10.0 mi Calm Calm - N/A   Clear
8:53 AM 70.0 °F - 59.0 °F 68% 30.19 in 10.0 mi SSW 3.5 mph - N/A   Clear
9:53 AM 72.0 °F - 57.9 °F 61% 30.20 in 10.0 mi South 5.8 mph - N/A   Clear
10:53 AM 75.0 °F - 57.0 °F 53% 30.20 in 10.0 mi SW 5.8 mph - N/A   Clear
11:53 AM 77.0 °F - 55.0 °F 47% 30.19 in 10.0 mi Variable 4.6 mph - N/A   Clear
12:53 PM 79.0 °F - 57.0 °F 47% 30.17 in 10.0 mi NNW 4.6 mph - N/A   Clear
1:53 PM 80.1 °F 80.1 °F 55.0 °F 42% 30.15 in 10.0 mi NE 5.8 mph - N/A   Clear
2:53 PM 80.1 °F 79.9 °F 53.1 °F 39% 30.14 in 10.0 mi ENE 6.9 mph - N/A   Clear
3:53 PM 81.0 °F 80.8 °F 55.9 °F 42% 30.13 in 10.0 mi East 4.6 mph - N/A   Clear
4:53 PM 81.0 °F 80.8 °F 55.9 °F 42% 30.12 in 10.0 mi NE 4.6 mph - N/A   Clear
5:53 PM 80.1 °F 80.1 °F 55.0 °F 42% 30.11 in 10.0 mi East 5.8 mph - N/A   Clear
6:53 PM 80.1 °F 80.7 °F 59.0 °F 48% 30.10 in 10.0 mi NE 3.5 mph - N/A   Clear
7:53 PM 75.0 °F - 57.9 °F 55% 30.11 in 10.0 mi ENE 3.5 mph - N/A   Clear
8:53 PM 71.1 °F - 57.0 °F 61% 30.11 in 10.0 mi NE 4.6 mph - N/A   Clear
9:53 PM 66.0 °F - 57.9 °F 75% 30.12 in 10.0 mi Calm Calm - N/A   Clear
10:53 PM 64.9 °F - 57.9 °F 78% 30.12 in 10.0 mi Calm Calm - N/A   Clear
11:53 PM 63.0 °F - 57.0 °F 81% 30.12 in 10.0 mi Calm Calm - N/A   Clear